sat.trackr.live / text

‹ back to catalog

STARLINK-35001

NORAD 65280 · 2025-184H

PAYLOAD ACTIVE UNKNOWN

§ Identity

Operator
Country
US
Launch date
2025-08-22
Launch site
AFWTR
Launch vehicle
Mass (kg)
RCS (m²)

Purposes: comms

External: N2YO · Heavens-Above · Gunter

§ Orbital elements

Epoch: 2026-05-25T03:04:02.841888Z

Period
95.64 min
Inclination
97.4480°
Eccentricity
0.0002751
Mean motion
15.05659326 rev/d
Perigee alt
547.6 km
Apogee alt
551.4 km
Semi-major
6,927.6 km
B*
2.6198e-4
RAAN
197.6558°
Arg perigee
122.0977°
Mean anomaly
238.0518°
Rev number
4,280

§ Raw data

STARLINK-350011 65280U 25184H   26145.12781067  .00003724  00000+0  26198-3 0  99952 65280  97.4480 197.6558 0002751 122.0977 238.0518 15.05659326 42802

JSON: /api/v1/satellites/65280 · /tle

For live sub-satellite position, see the globe view (requires WebGL).

§ Visibility from observer

Set your observer location to see the next 7 days of passes ≥ 10°. The values pass through the URL so the page stays shareable.

No JS? Fill the form by hand. The geolocation button needs JavaScript.